Time,TemperatureF,DewpointF,PressureIn,WindDirection,WindDirectionDegrees,WindSpeedMPH,WindSpeedGustMPH,Humidity,HourlyPrecipIn,Conditions,Clouds,dailyrainin,SolarRadiationWatts/m^2,SoftwareType,DateUTC
2013-02-15 00:03:00,47.8,46.2,30.29,ESE,104,0.0,4.0,94,0.00,,,0.00,0,Wunderground v.1.15,2013-02-15 08:03:00,
2013-02-15 00:09:00,47.9,46.3,30.28,ESE,104,0.0,0.0,94,0.00,,,0.00,0,Wunderground v.1.15,2013-02-15 08:09:00,
2013-02-15 00:15:00,47.9,46.3,30.29,ESE,104,0.0,0.0,94,0.00,,,0.00,0,Wunderground v.1.15,2013-02-15 08:15:00,
2013-02-15 00:21:00,48.1,46.5,30.28,ESE,104,1.0,1.0,94,0.00,,,0.00,0,Wunderground v.1.15,2013-02-15 08:21:00,
2013-02-15 00:27:00,48.1,46.2,30.29,ESE,114,0.0,2.0,93,0.00,,,0.00,0,Wunderground v.1.15,2013-02-15 08:27:00,
2013-02-15 00:33:00,48.1,46.2,30.29,SE,125,0.0,1.0,93,0.00,,,0.00,0,Wunderground v.1.15,2013-02-15 08:33:00,
2013-02-15 00:38:00,48.1,46.2,30.29,ESE,118,0.0,1.0,93,0.00,,,0.00,0,Wunderground v.1.15,2013-02-15 08:38:00,
2013-02-15 00:43:00,47.9,46.0,30.29,ESE,111,1.0,2.0,93,0.00,,,0.00,0,Wunderground v.1.15,2013-02-15 08:43:00,
2013-02-15 00:49:00,47.1,45.5,30.29,ENE,68,0.0,0.0,94,0.00,,,0.00,0,Wunderground v.1.15,2013-02-15 08:49:00,
2013-02-15 00:55:00,46.7,45.1,30.29,ENE,76,0.0,0.0,94,0.00,,,0.00,0,Wunderground v.1.15,2013-02-15 08:55:00,
2013-02-15 01:01:00,46.7,45.1,30.29,ENE,76,0.0,2.0,94,0.00,,,0.00,0,Wunderground v.1.15,2013-02-15 09:01:00,
2013-02-15 01:07:00,46.9,45.3,30.29,East,86,0.0,2.0,94,0.00,,,0.00,0,Wunderground v.1.15,2013-02-15 09:07:00,
2013-02-15 01:12:00,46.8,45.2,30.29,East,86,0.0,0.0,94,0.00,,,0.00,0,Wunderground v.1.15,2013-02-15 09:12:00,
2013-02-15 01:18:00,46.5,44.9,30.29,East,80,0.0,0.0,94,0.00,,,0.00,0,Wunderground v.1.15,2013-02-15 09:18:00,
2013-02-15 01:24:00,46.1,44.7,30.30,East,79,0.0,0.0,95,0.00,,,0.00,0,Wunderground v.1.15,2013-02-15 09:24:00,
2013-02-15 01:30:00,46.2,44.6,30.30,East,79,0.0,0.0,94,0.00,,,0.00,0,Wunderground v.1.15,2013-02-15 09:30:00,
2013-02-15 01:36:00,46.4,44.8,30.30,ESE,112,1.0,2.0,94,0.00,,,0.00,0,Wunderground v.1.15,2013-02-15 09:36:00,
2013-02-15 01:42:00,46.4,44.5,30.30,ESE,105,0.0,1.0,93,0.00,,,0.00,0,Wunderground v.1.15,2013-02-15 09:42:00,
2013-02-15 01:48:00,46.2,44.3,30.30,ESE,105,0.0,1.0,93,0.00,,,0.00,0,Wunderground v.1.15,2013-02-15 09:48:00,
2013-02-15 01:53:00,46.0,44.4,30.31,ESE,105,0.0,0.0,94,0.00,,,0.00,0,Wunderground v.1.15,2013-02-15 09:53:00,
2013-02-15 01:59:00,45.8,44.2,30.30,ESE,104,1.0,1.0,94,0.00,,,0.00,0,Wunderground v.1.15,2013-02-15 09:59:00,
2013-02-15 02:07:00,45.9,44.0,30.30,ESE,104,0.0,5.0,93,0.00,,,0.00,0,Wunderground v.1.15,2013-02-15 10:07:00,
2013-02-15 02:12:00,45.8,43.9,30.31,ESE,104,0.0,0.0,93,0.00,,,0.00,0,Wunderground v.1.15,2013-02-15 10:12:00,
2013-02-15 02:17:00,45.8,43.9,30.31,ESE,112,1.0,1.0,93,0.00,,,0.00,0,Wunderground v.1.15,2013-02-15 10:17:00,
2013-02-15 02:23:00,45.8,43.6,30.31,ESE,118,1.0,2.0,92,0.00,,,0.00,0,Wunderground v.1.15,2013-02-15 10:23:00,
2013-02-15 02:29:00,45.8,43.6,30.31,ESE,109,1.0,1.0,92,0.00,,,0.00,0,Wunderground v.1.15,2013-02-15 10:29:00,
2013-02-15 02:35:00,45.7,43.5,30.31,ESE,117,0.0,1.0,92,0.00,,,0.00,0,Wunderground v.1.15,2013-02-15 10:35:00,
2013-02-15 02:41:00,45.5,43.3,30.31,ESE,112,2.0,2.0,92,0.00,,,0.00,0,Wunderground v.1.15,2013-02-15 10:41:00,
2013-02-15 02:47:00,45.6,43.4,30.31,ESE,110,0.0,2.0,92,0.00,,,0.00,0,Wunderground v.1.15,2013-02-15 10:47:00,
2013-02-15 02:52:00,45.4,42.9,30.30,ESE,109,0.0,0.0,91,0.00,,,0.00,0,Wunderground v.1.15,2013-02-15 10:52:00,
2013-02-15 02:57:00,45.5,43.0,30.30,ESE,109,0.0,1.0,91,0.00,,,0.00,0,Wunderground v.1.15,2013-02-15 10:57:00,
2013-02-15 03:02:00,45.6,42.8,30.30,ESE,118,2.0,3.0,90,0.00,,,0.00,0,Wunderground v.1.15,2013-02-15 11:02:00,
2013-02-15 03:08:00,45.7,42.6,30.30,SE,134,1.0,3.0,89,0.00,,,0.00,0,Wunderground v.1.15,2013-02-15 11:08:00,
2013-02-15 03:13:00,45.7,42.6,30.30,SE,131,3.0,3.0,89,0.00,,,0.00,0,Wunderground v.1.15,2013-02-15 11:13:00,
2013-02-15 03:18:00,45.7,42.6,30.30,SE,134,3.0,5.0,89,0.00,,,0.00,0,Wunderground v.1.15,2013-02-15 11:18:00,
2013-02-15 03:23:00,45.8,42.2,30.30,SE,133,3.0,4.0,87,0.00,,,0.00,0,Wunderground v.1.15,2013-02-15 11:23:00,
2013-02-15 03:29:00,46.0,42.3,30.30,SE,132,3.0,3.0,87,0.00,,,0.00,0,Wunderground v.1.15,2013-02-15 11:29:00,
2013-02-15 03:34:00,46.0,42.0,30.30,ESE,123,4.0,4.0,86,0.00,,,0.00,0,Wunderground v.1.15,2013-02-15 11:34:00,
2013-02-15 03:39:00,46.0,42.0,30.30,SE,125,3.0,3.0,86,0.00,,,0.00,0,Wunderground v.1.15,2013-02-15 11:39:00,
2013-02-15 03:44:00,46.0,42.0,30.30,SE,126,2.0,3.0,86,0.00,,,0.00,0,Wunderground v.1.15,2013-02-15 11:44:00,
2013-02-15 03:50:00,46.0,42.0,30.30,ESE,117,0.0,0.0,86,0.00,,,0.00,0,Wunderground v.1.15,2013-02-15 11:50:00,
2013-02-15 03:55:00,45.9,41.9,30.30,ESE,116,0.0,0.0,86,0.00,,,0.00,0,Wunderground v.1.15,2013-02-15 11:55:00,
2013-02-15 04:00:00,45.9,41.6,30.30,ESE,117,0.0,3.0,85,0.00,,,0.00,0,Wunderground v.1.15,2013-02-15 12:00:00,
2013-02-15 04:07:00,45.9,41.9,30.30,ESE,117,0.0,3.0,86,0.00,,,0.00,0,Wunderground v.1.15,2013-02-15 12:07:00,
2013-02-15 04:13:00,45.8,41.5,30.30,ESE,117,0.0,1.0,85,0.00,,,0.00,0,Wunderground v.1.15,2013-02-15 12:13:00,
2013-02-15 04:18:00,45.7,41.1,30.30,ESE,115,4.0,4.0,84,0.00,,,0.00,0,Wunderground v.1.15,2013-02-15 12:18:00,
2013-02-15 04:24:00,45.7,41.1,30.31,SSE,159,0.0,4.0,84,0.00,,,0.00,0,Wunderground v.1.15,2013-02-15 12:24:00,
2013-02-15 04:29:00,45.8,40.6,30.31,ESE,121,2.0,2.0,82,0.00,,,0.00,0,Wunderground v.1.15,2013-02-15 12:29:00,
2013-02-15 04:35:00,46.0,40.5,30.31,SE,133,0.0,5.0,81,0.00,,,0.00,0,Wunderground v.1.15,2013-02-15 12:35:00,
2013-02-15 04:40:00,46.0,40.5,30.30,ESE,109,4.0,4.0,81,0.00,,,0.00,0,Wunderground v.1.15,2013-02-15 12:40:00,
2013-02-15 04:46:00,46.0,40.2,30.31,ESE,112,3.0,4.0,80,0.00,,,0.00,0,Wunderground v.1.15,2013-02-15 12:46:00,
2013-02-15 04:51:00,46.1,39.9,30.30,ESE,114,1.0,3.0,79,0.00,,,0.00,0,Wunderground v.1.15,2013-02-15 12:51:00,
2013-02-15 04:56:00,46.2,40.0,30.30,ESE,115,2.0,3.0,79,0.00,,,0.00,0,Wunderground v.1.15,2013-02-15 12:56:00,
2013-02-15 05:01:00,46.2,40.0,30.30,SSE,148,2.0,2.0,79,0.00,,,0.00,0,Wunderground v.1.15,2013-02-15 13:01:00,
2013-02-15 05:07:00,46.2,40.0,30.31,SE,129,2.0,5.0,79,0.00,,,0.00,0,Wunderground v.1.15,2013-02-15 13:07:00,
2013-02-15 05:12:00,46.1,39.9,30.31,SE,145,0.0,1.0,79,0.00,,,0.00,0,Wunderground v.1.15,2013-02-15 13:12:00,
2013-02-15 05:18:00,46.1,39.9,30.31,SE,141,2.0,5.0,79,0.00,,,0.00,0,Wunderground v.1.15,2013-02-15 13:18:00,
2013-02-15 05:23:00,46.0,39.9,30.31,East,86,0.0,3.0,79,0.00,,,0.00,0,Wunderground v.1.15,2013-02-15 13:23:00,
2013-02-15 05:29:00,46.0,39.9,30.31,ESE,109,0.0,0.0,79,0.00,,,0.00,0,Wunderground v.1.15,2013-02-15 13:29:00,
2013-02-15 05:35:00,46.0,39.5,30.31,ESE,121,0.0,1.0,78,0.00,,,0.00,0,Wunderground v.1.15,2013-02-15 13:35:00,
2013-02-15 05:41:00,45.9,39.8,30.31,SSE,156,0.0,1.0,79,0.00,,,0.00,0,Wunderground v.1.15,2013-02-15 13:41:00,
2013-02-15 05:47:00,45.7,39.2,30.31,SSE,149,2.0,3.0,78,0.00,,,0.00,0,Wunderground v.1.15,2013-02-15 13:47:00,
2013-02-15 05:53:00,45.7,39.6,30.31,SSE,147,0.0,2.0,79,0.00,,,0.00,0,Wunderground v.1.15,2013-02-15 13:53:00,
2013-02-15 05:58:00,45.6,39.8,30.32,SSE,147,0.0,2.0,80,0.00,,,0.00,0,Wunderground v.1.15,2013-02-15 13:58:00,
2013-02-15 06:07:00,45.6,40.7,30.32,SSE,147,0.0,6.0,83,0.00,,,0.00,0,Wunderground v.1.15,2013-02-15 14:07:00,
2013-02-15 06:12:00,45.4,41.8,30.32,SE,136,0.0,2.0,87,0.00,,,0.00,0,Wunderground v.1.15,2013-02-15 14:12:00,
2013-02-15 06:17:00,45.2,42.2,30.32,SE,136,0.0,2.0,89,0.00,,,0.00,0,Wunderground v.1.15,2013-02-15 14:17:00,
2013-02-15 06:23:00,45.0,42.2,30.32,SE,135,0.0,0.0,90,0.00,,,0.00,0,Wunderground v.1.15,2013-02-15 14:23:00,
2013-02-15 06:29:00,44.8,42.6,30.32,SE,136,0.0,0.0,92,0.00,,,0.00,0,Wunderground v.1.15,2013-02-15 14:29:00,
2013-02-15 06:35:00,44.5,41.7,30.32,SE,130,0.0,0.0,90,0.00,,,0.00,0,Wunderground v.1.15,2013-02-15 14:35:00,
2013-02-15 06:40:00,44.2,39.7,30.32,SE,130,0.0,0.0,84,0.00,,,0.00,0,Wunderground v.1.15,2013-02-15 14:40:00,
2013-02-15 06:46:00,44.1,39.3,30.32,SE,130,0.0,0.0,83,0.00,,,0.00,0,Wunderground v.1.15,2013-02-15 14:46:00,
2013-02-15 06:52:00,43.7,38.9,30.32,SE,130,0.0,0.0,83,0.00,,,0.00,0,Wunderground v.1.15,2013-02-15 14:52:00,
2013-02-15 06:58:00,43.9,38.4,30.32,SE,130,0.0,0.0,81,0.00,,,0.00,0,Wunderground v.1.15,2013-02-15 14:58:00,
2013-02-15 07:03:00,44.1,38.3,30.32,SE,130,0.0,5.0,80,0.00,,,0.00,0,Wunderground v.1.15,2013-02-15 15:03:00,
2013-02-15 07:08:00,44.2,38.4,30.32,SE,126,0.0,5.0,80,0.00,,,0.00,0,Wunderground v.1.15,2013-02-15 15:08:00,
2013-02-15 07:14:00,44.0,37.9,30.32,ESE,117,1.0,2.0,79,0.00,,,0.00,0,Wunderground v.1.15,2013-02-15 15:14:00,
2013-02-15 07:19:00,44.1,38.6,30.32,ESE,116,0.0,0.0,81,0.00,,,0.00,0,Wunderground v.1.15,2013-02-15 15:19:00,
2013-02-15 07:25:00,44.2,38.1,30.33,ESE,116,0.0,0.0,79,0.00,,,0.00,0,Wunderground v.1.15,2013-02-15 15:25:00,
2013-02-15 07:30:00,44.4,38.0,30.33,ESE,116,0.0,0.0,78,0.00,,,0.00,0,Wunderground v.1.15,2013-02-15 15:30:00,
2013-02-15 07:36:00,43.9,38.8,30.33,ENE,71,0.0,1.0,82,0.00,,,0.00,0,Wunderground v.1.15,2013-02-15 15:36:00,
2013-02-15 07:42:00,43.3,38.5,30.33,ENE,72,0.0,0.0,83,0.00,,,0.00,0,Wunderground v.1.15,2013-02-15 15:42:00,
2013-02-15 07:48:00,43.4,38.6,30.33,ENE,71,0.0,0.0,83,0.00,,,0.00,0,Wunderground v.1.15,2013-02-15 15:48:00,
2013-02-15 07:54:00,43.7,38.9,30.34,ESE,106,2.0,2.0,83,0.00,,,0.00,0,Wunderground v.1.15,2013-02-15 15:54:00,
2013-02-15 07:59:00,44.5,38.7,30.34,SE,128,1.0,1.0,80,0.00,,,0.00,0,Wunderground v.1.15,2013-02-15 15:59:00,
2013-02-15 08:07:00,45.7,40.2,30.34,ESE,116,0.0,2.0,81,0.00,,,0.00,0,Wunderground v.1.15,2013-02-15 16:07:00,
2013-02-15 08:13:00,46.3,40.5,30.34,East,81,0.0,2.0,80,0.00,,,0.00,0,Wunderground v.1.15,2013-02-15 16:13:00,
2013-02-15 08:19:00,47.0,40.8,30.34,ESE,113,0.0,0.0,79,0.00,,,0.00,0,Wunderground v.1.15,2013-02-15 16:19:00,
2013-02-15 08:25:00,47.6,42.4,30.34,NNE,24,0.0,1.0,82,0.00,,,0.00,0,Wunderground v.1.15,2013-02-15 16:25:00,
2013-02-15 08:31:00,48.3,41.8,30.34,NNE,24,0.0,0.0,78,0.00,,,0.00,0,Wunderground v.1.15,2013-02-15 16:31:00,
2013-02-15 08:37:00,48.8,42.9,30.34,NNE,24,0.0,0.0,80,0.00,,,0.00,0,Wunderground v.1.15,2013-02-15 16:37:00,
2013-02-15 08:43:00,49.7,43.5,30.34,NNE,25,0.0,0.0,79,0.00,,,0.00,0,Wunderground v.1.15,2013-02-15 16:43:00,
2013-02-15 08:49:00,50.6,43.0,30.34,ESE,112,0.0,0.0,75,0.00,,,0.00,0,Wunderground v.1.15,2013-02-15 16:49:00,
2013-02-15 08:55:00,51.6,45.0,30.34,East,98,0.0,0.0,78,0.00,,,0.00,0,Wunderground v.1.15,2013-02-15 16:55:00,
2013-02-15 09:01:00,52.3,45.6,30.34,East,97,0.0,3.0,78,0.00,,,0.00,0,Wunderground v.1.15,2013-02-15 17:01:00,
2013-02-15 09:07:00,53.0,45.3,30.34,East,97,0.0,3.0,75,0.00,,,0.00,0,Wunderground v.1.15,2013-02-15 17:07:00,
2013-02-15 09:12:00,53.5,45.8,30.34,East,97,0.0,0.0,75,0.00,,,0.00,0,Wunderground v.1.15,2013-02-15 17:12:00,
2013-02-15 09:18:00,54.0,46.6,30.34,East,97,0.0,0.0,76,0.00,,,0.00,0,Wunderground v.1.15,2013-02-15 17:18:00,
2013-02-15 09:24:00,54.5,47.4,30.34,North,351,0.0,1.0,77,0.00,,,0.00,0,Wunderground v.1.15,2013-02-15 17:24:00,
2013-02-15 09:30:00,55.0,48.3,30.34,NW,310,1.0,1.0,78,0.00,,,0.00,0,Wunderground v.1.15,2013-02-15 17:30:00,
2013-02-15 09:36:00,55.3,48.2,30.34,NW,323,0.0,2.0,77,0.00,,,0.00,0,Wunderground v.1.15,2013-02-15 17:36:00,
2013-02-15 09:41:00,55.7,49.3,30.34,WNW,297,0.0,2.0,79,0.00,,,0.00,0,Wunderground v.1.15,2013-02-15 17:41:00,
2013-02-15 09:46:00,56.2,49.8,30.34,SW,224,0.0,2.0,79,0.00,,,0.00,0,Wunderground v.1.15,2013-02-15 17:46:00,
2013-02-15 09:52:00,56.7,49.6,30.34,NW,308,0.0,1.0,77,0.00,,,0.00,0,Wunderground v.1.15,2013-02-15 17:52:00,
2013-02-15 09:58:00,57.0,50.2,30.34,West,265,0.0,4.0,78,0.00,,,0.00,0,Wunderground v.1.15,2013-02-15 17:58:00,
2013-02-15 10:03:00,57.4,50.6,30.34,SW,233,0.0,4.0,78,0.00,,,0.00,0,Wunderground v.1.15,2013-02-15 18:03:00,
2013-02-15 10:09:00,57.6,50.4,30.35,NNW,329,2.0,2.0,77,0.00,,,0.00,0,Wunderground v.1.15,2013-02-15 18:09:00,
2013-02-15 10:15:00,57.9,50.7,30.35,NNW,345,2.0,4.0,77,0.00,,,0.00,0,Wunderground v.1.15,2013-02-15 18:15:00,
2013-02-15 10:21:00,58.1,50.9,30.35,West,277,2.0,3.0,77,0.00,,,0.00,0,Wunderground v.1.15,2013-02-15 18:21:00,
2013-02-15 10:26:00,58.4,51.2,30.35,West,281,2.0,4.0,77,0.00,,,0.00,0,Wunderground v.1.15,2013-02-15 18:26:00,
2013-02-15 10:31:00,58.5,50.2,30.35,NNW,332,4.0,4.0,74,0.00,,,0.00,0,Wunderground v.1.15,2013-02-15 18:31:00,
2013-02-15 10:37:00,58.8,50.9,30.35,NW,316,0.0,4.0,75,0.00,,,0.00,0,Wunderground v.1.15,2013-02-15 18:37:00,
2013-02-15 10:43:00,59.3,50.6,30.35,NNW,330,1.0,4.0,73,0.00,,,0.00,0,Wunderground v.1.15,2013-02-15 18:43:00,
2013-02-15 10:49:00,59.5,50.5,30.35,NW,312,2.0,2.0,72,0.00,,,0.00,0,Wunderground v.1.15,2013-02-15 18:49:00,
2013-02-15 10:55:00,59.5,50.1,30.35,NNW,346,1.0,3.0,71,0.00,,,0.00,0,Wunderground v.1.15,2013-02-15 18:55:00,
2013-02-15 11:00:00,59.8,50.0,30.35,NNE,14,5.0,5.0,70,0.00,,,0.00,0,Wunderground v.1.15,2013-02-15 19:00:00,
2013-02-15 11:07:00,60.0,50.6,30.35,NNW,329,0.0,5.0,71,0.00,,,0.00,0,Wunderground v.1.15,2013-02-15 19:07:00,
2013-02-15 11:12:00,60.3,50.9,30.35,WNW,302,0.0,5.0,71,0.00,,,0.00,0,Wunderground v.1.15,2013-02-15 19:12:00,
2013-02-15 11:18:00,60.7,51.2,30.35,NNE,13,0.0,5.0,71,0.00,,,0.00,0,Wunderground v.1.15,2013-02-15 19:18:00,
2013-02-15 11:24:00,61.4,51.1,30.34,NW,306,2.0,2.0,69,0.00,,,0.00,0,Wunderground v.1.15,2013-02-15 19:24:00,
2013-02-15 11:29:00,61.6,50.5,30.34,NW,311,0.0,0.0,67,0.00,,,0.00,0,Wunderground v.1.15,2013-02-15 19:29:00,
2013-02-15 11:35:00,61.8,51.1,30.34,NNW,331,3.0,4.0,68,0.00,,,0.00,0,Wunderground v.1.15,2013-02-15 19:35:00,
2013-02-15 11:41:00,62.2,51.9,30.34,SSW,213,0.0,2.0,69,0.00,,,0.00,0,Wunderground v.1.15,2013-02-15 19:41:00,
2013-02-15 11:47:00,63.0,52.7,30.34,WNW,298,0.0,4.0,69,0.00,,,0.00,0,Wunderground v.1.15,2013-02-15 19:47:00,
2013-02-15 11:53:00,63.3,51.7,30.33,North,4,0.0,1.0,66,0.00,,,0.00,0,Wunderground v.1.15,2013-02-15 19:53:00,
2013-02-15 11:59:00,63.6,52.4,30.33,WNW,295,3.0,3.0,67,0.00,,,0.00,0,Wunderground v.1.15,2013-02-15 19:59:00,
2013-02-15 12:07:00,63.8,51.4,30.33,NE,40,1.0,5.0,64,0.00,,,0.00,0,Wunderground v.1.15,2013-02-15 20:07:00,
2013-02-15 12:13:00,64.1,52.1,30.32,NW,317,2.0,2.0,65,0.00,,,0.00,0,Wunderground v.1.15,2013-02-15 20:13:00,
2013-02-15 12:19:00,64.7,52.2,30.32,WSW,251,1.0,1.0,64,0.00,,,0.00,0,Wunderground v.1.15,2013-02-15 20:19:00,
2013-02-15 12:25:00,65.0,52.1,30.32,WNW,288,2.0,3.0,63,0.00,,,0.00,0,Wunderground v.1.15,2013-02-15 20:25:00,
2013-02-15 12:31:00,65.0,52.1,30.32,NNW,333,3.0,3.0,63,0.00,,,0.00,0,Wunderground v.1.15,2013-02-15 20:31:00,
2013-02-15 12:36:00,65.5,53.0,30.31,NNW,338,1.0,3.0,64,0.00,,,0.00,0,Wunderground v.1.15,2013-02-15 20:36:00,
2013-02-15 12:42:00,65.9,52.5,30.31,West,259,1.0,1.0,62,0.00,,,0.00,0,Wunderground v.1.15,2013-02-15 20:42:00,
2013-02-15 12:47:00,66.2,52.8,30.31,WSW,254,2.0,3.0,62,0.00,,,0.00,0,Wunderground v.1.15,2013-02-15 20:47:00,
2013-02-15 12:53:00,66.4,53.4,30.31,WSW,245,4.0,4.0,63,0.00,,,0.00,0,Wunderground v.1.15,2013-02-15 20:53:00,
2013-02-15 12:59:00,66.5,52.6,30.31,NNW,342,3.0,3.0,61,0.00,,,0.00,0,Wunderground v.1.15,2013-02-15 20:59:00,
2013-02-15 13:07:00,66.4,53.0,30.31,WSW,242,3.0,6.0,62,0.00,,,0.00,0,Wunderground v.1.15,2013-02-15 21:07:00,
2013-02-15 13:12:00,66.4,52.1,30.30,NNW,330,1.0,2.0,60,0.00,,,0.00,0,Wunderground v.1.15,2013-02-15 21:12:00,
2013-02-15 13:18:00,66.5,53.5,30.30,WSW,251,0.0,4.0,63,0.00,,,0.00,0,Wunderground v.1.15,2013-02-15 21:18:00,
2013-02-15 13:24:00,66.8,53.4,30.30,NW,312,1.0,2.0,62,0.00,,,0.00,0,Wunderground v.1.15,2013-02-15 21:24:00,
2013-02-15 13:29:00,66.9,52.6,30.30,WNW,285,2.0,2.0,60,0.00,,,0.00,0,Wunderground v.1.15,2013-02-15 21:29:00,
2013-02-15 13:34:00,67.1,50.9,30.30,SE,140,0.0,2.0,56,0.00,,,0.00,0,Wunderground v.1.15,2013-02-15 21:34:00,
2013-02-15 13:40:00,67.3,52.9,30.29,WSW,258,2.0,3.0,60,0.00,,,0.00,0,Wunderground v.1.15,2013-02-15 21:40:00,
2013-02-15 13:46:00,67.5,52.7,30.29,NNW,340,1.0,5.0,59,0.00,,,0.00,0,Wunderground v.1.15,2013-02-15 21:46:00,
2013-02-15 13:52:00,67.5,52.7,30.29,NNW,332,0.0,2.0,59,0.00,,,0.00,0,Wunderground v.1.15,2013-02-15 21:52:00,
2013-02-15 13:57:00,67.7,53.3,30.28,North,352,0.0,5.0,60,0.00,,,0.00,0,Wunderground v.1.15,2013-02-15 21:57:00,
2013-02-15 14:03:00,68.0,53.1,30.28,NW,312,2.0,7.0,59,0.00,,,0.00,0,Wunderground v.1.15,2013-02-15 22:03:00,
2013-02-15 14:08:00,67.9,53.0,30.28,WSW,251,1.0,7.0,59,0.00,,,0.00,0,Wunderground v.1.15,2013-02-15 22:08:00,
2013-02-15 14:14:00,68.1,53.2,30.28,WSW,247,1.0,3.0,59,0.00,,,0.00,0,Wunderground v.1.15,2013-02-15 22:14:00,
2013-02-15 14:19:00,68.4,53.0,30.28,SSW,199,3.0,3.0,58,0.00,,,0.00,0,Wunderground v.1.15,2013-02-15 22:19:00,
2013-02-15 14:25:00,68.6,52.3,30.27,NNW,336,0.0,3.0,56,0.00,,,0.00,0,Wunderground v.1.15,2013-02-15 22:25:00,
2013-02-15 14:30:00,68.4,52.1,30.27,NW,315,5.0,5.0,56,0.00,,,0.00,0,Wunderground v.1.15,2013-02-15 22:30:00,
2013-02-15 14:35:00,68.4,52.1,30.27,SSE,162,3.0,5.0,56,0.00,,,0.00,0,Wunderground v.1.15,2013-02-15 22:35:00,
2013-02-15 14:41:00,68.4,51.6,30.27,North,357,0.0,0.0,55,0.00,,,0.00,0,Wunderground v.1.15,2013-02-15 22:41:00,
2013-02-15 14:47:00,68.5,51.2,30.27,NW,313,1.0,3.0,54,0.00,,,0.00,0,Wunderground v.1.15,2013-02-15 22:47:00,
2013-02-15 14:53:00,68.6,50.8,30.27,North,353,1.0,1.0,53,0.00,,,0.00,0,Wunderground v.1.15,2013-02-15 22:53:00,
2013-02-15 14:59:00,68.5,50.2,30.27,NNW,340,1.0,3.0,52,0.00,,,0.00,0,Wunderground v.1.15,2013-02-15 22:59:00,
2013-02-15 15:07:00,68.4,50.6,30.27,NNW,342,0.0,7.0,53,0.00,,,0.00,0,Wunderground v.1.15,2013-02-15 23:07:00,
2013-02-15 15:13:00,68.5,50.7,30.27,NW,310,0.0,2.0,53,0.00,,,0.00,0,Wunderground v.1.15,2013-02-15 23:13:00,
2013-02-15 15:18:00,68.5,51.2,30.27,NW,318,1.0,4.0,54,0.00,,,0.00,0,Wunderground v.1.15,2013-02-15 23:18:00,
2013-02-15 15:24:00,68.6,51.8,30.27,WNW,301,4.0,4.0,55,0.00,,,0.00,0,Wunderground v.1.15,2013-02-15 23:24:00,
2013-02-15 15:30:00,68.5,51.2,30.27,NNW,339,3.0,3.0,54,0.00,,,0.00,0,Wunderground v.1.15,2013-02-15 23:30:00,
2013-02-15 15:35:00,68.4,51.6,30.27,NW,309,1.0,3.0,55,0.00,,,0.00,0,Wunderground v.1.15,2013-02-15 23:35:00,
2013-02-15 15:41:00,68.5,52.2,30.27,West,276,1.0,4.0,56,0.00,,,0.00,0,Wunderground v.1.15,2013-02-15 23:41:00,
2013-02-15 15:46:00,68.6,53.2,30.27,WNW,289,2.0,5.0,58,0.00,,,0.00,0,Wunderground v.1.15,2013-02-15 23:46:00,
2013-02-15 15:52:00,68.4,53.0,30.27,WNW,303,3.0,5.0,58,0.00,,,0.00,0,Wunderground v.1.15,2013-02-15 23:52:00,
2013-02-15 15:57:00,68.2,52.4,30.27,NW,306,2.0,5.0,57,0.00,,,0.00,0,Wunderground v.1.15,2013-02-15 23:57:00,
2013-02-15 16:02:00,68.1,52.3,30.26,NNW,334,3.0,7.0,57,0.00,,,0.00,0,Wunderground v.1.15,2013-02-16 00:02:00,
2013-02-15 16:08:00,68.0,52.7,30.26,NW,305,2.0,7.0,58,0.00,,,0.00,0,Wunderground v.1.15,2013-02-16 00:08:00,
2013-02-15 16:13:00,68.0,52.7,30.26,NW,310,3.0,5.0,58,0.00,,,0.00,0,Wunderground v.1.15,2013-02-16 00:13:00,
2013-02-15 16:19:00,67.9,53.5,30.26,WNW,295,1.0,5.0,60,0.00,,,0.00,0,Wunderground v.1.15,2013-02-16 00:19:00,
2013-02-15 16:24:00,67.8,52.9,30.26,NW,306,3.0,4.0,59,0.00,,,0.00,0,Wunderground v.1.15,2013-02-16 00:24:00,
2013-02-15 16:30:00,67.6,52.3,30.26,NW,323,3.0,3.0,58,0.00,,,0.00,0,Wunderground v.1.15,2013-02-16 00:30:00,
2013-02-15 16:35:00,67.3,52.0,30.26,NNW,330,3.0,3.0,58,0.00,,,0.00,0,Wunderground v.1.15,2013-02-16 00:35:00,
2013-02-15 16:40:00,67.1,52.3,30.26,NW,316,2.0,2.0,59,0.00,,,0.00,0,Wunderground v.1.15,2013-02-16 00:40:00,
2013-02-15 16:46:00,67.0,51.7,30.25,NNW,329,0.0,2.0,58,0.00,,,0.00,0,Wunderground v.1.15,2013-02-16 00:46:00,
2013-02-15 16:52:00,66.9,52.1,30.25,NW,311,1.0,2.0,59,0.00,,,0.00,0,Wunderground v.1.15,2013-02-16 00:52:00,
2013-02-15 16:57:00,66.7,52.8,30.25,NW,310,1.0,3.0,61,0.00,,,0.00,0,Wunderground v.1.15,2013-02-16 00:57:00,
2013-02-15 17:02:00,66.6,53.2,30.25,WNW,295,1.0,6.0,62,0.00,,,0.00,0,Wunderground v.1.15,2013-02-16 01:02:00,
2013-02-15 17:08:00,66.3,53.3,30.25,WNW,295,2.0,6.0,63,0.00,,,0.00,0,Wunderground v.1.15,2013-02-16 01:08:00,
2013-02-15 17:14:00,66.1,53.6,30.25,NW,308,2.0,2.0,64,0.00,,,0.00,0,Wunderground v.1.15,2013-02-16 01:14:00,
2013-02-15 17:20:00,65.9,53.8,30.25,WNW,303,1.0,1.0,65,0.00,,,0.00,0,Wunderground v.1.15,2013-02-16 01:20:00,
2013-02-15 17:25:00,65.6,53.9,30.25,WNW,303,0.0,1.0,66,0.00,,,0.00,0,Wunderground v.1.15,2013-02-16 01:25:00,
2013-02-15 17:31:00,65.4,53.7,30.25,WNW,303,0.0,0.0,66,0.00,,,0.00,0,Wunderground v.1.15,2013-02-16 01:31:00,
2013-02-15 17:37:00,65.1,53.9,30.25,WNW,303,0.0,0.0,67,0.00,,,0.00,0,Wunderground v.1.15,2013-02-16 01:37:00,
2013-02-15 17:43:00,64.9,53.7,30.25,WNW,303,0.0,1.0,67,0.00,,,0.00,0,Wunderground v.1.15,2013-02-16 01:43:00,
2013-02-15 17:48:00,64.6,53.4,30.25,WNW,303,0.0,1.0,67,0.00,,,0.00,0,Wunderground v.1.15,2013-02-16 01:48:00,
2013-02-15 17:53:00,64.4,53.2,30.25,WNW,303,0.0,0.0,67,0.00,,,0.00,0,Wunderground v.1.15,2013-02-16 01:53:00,
2013-02-15 17:59:00,64.0,53.2,30.25,WNW,303,0.0,0.0,68,0.00,,,0.00,0,Wunderground v.1.15,2013-02-16 01:59:00,
2013-02-15 18:08:00,63.0,53.1,30.25,NW,309,0.0,5.0,70,0.00,,,0.00,0,Wunderground v.1.15,2013-02-16 02:08:00,
2013-02-15 18:13:00,62.3,52.8,30.25,NW,309,0.0,0.0,71,0.00,,,0.00,0,Wunderground v.1.15,2013-02-16 02:13:00,
2013-02-15 18:19:00,61.5,52.4,30.26,NW,309,0.0,0.0,72,0.00,,,0.00,0,Wunderground v.1.15,2013-02-16 02:19:00,
2013-02-15 18:25:00,61.2,52.1,30.26,NW,309,0.0,0.0,72,0.00,,,0.00,0,Wunderground v.1.15,2013-02-16 02:25:00,
2013-02-15 18:31:00,60.7,52.0,30.25,NW,309,0.0,0.0,73,0.00,,,0.00,0,Wunderground v.1.15,2013-02-16 02:31:00,
2013-02-15 18:36:00,60.3,51.6,30.25,NW,309,0.0,0.0,73,0.00,,,0.00,0,Wunderground v.1.15,2013-02-16 02:36:00,
2013-02-15 18:42:00,60.0,51.7,30.25,NW,309,0.0,0.0,74,0.00,,,0.00,0,Wunderground v.1.15,2013-02-16 02:42:00,
2013-02-15 18:48:00,59.6,52.0,30.26,NW,309,0.0,0.0,76,0.00,,,0.00,0,Wunderground v.1.15,2013-02-16 02:48:00,
2013-02-15 18:54:00,59.2,52.0,30.26,NW,309,0.0,0.0,77,0.00,,,0.00,0,Wunderground v.1.15,2013-02-16 02:54:00,
2013-02-15 19:00:00,58.7,51.9,30.26,NW,309,0.0,0.0,78,0.00,,,0.00,0,Wunderground v.1.15,2013-02-16 03:00:00,
2013-02-15 19:08:00,57.8,51.0,30.26,NW,309,0.0,1.0,78,0.00,,,0.00,0,Wunderground v.1.15,2013-02-16 03:08:00,
2013-02-15 19:14:00,56.7,50.6,30.27,NW,310,0.0,0.0,80,0.00,,,0.00,0,Wunderground v.1.15,2013-02-16 03:14:00,
2013-02-15 19:19:00,56.1,50.3,30.27,NW,310,0.0,0.0,81,0.00,,,0.00,0,Wunderground v.1.15,2013-02-16 03:19:00,
2013-02-15 19:25:00,55.8,50.1,30.27,NW,310,0.0,0.0,81,0.00,,,0.00,0,Wunderground v.1.15,2013-02-16 03:25:00,
2013-02-15 19:31:00,55.7,50.3,30.27,NW,310,0.0,0.0,82,0.00,,,0.00,0,Wunderground v.1.15,2013-02-16 03:31:00,
2013-02-15 19:37:00,55.2,49.8,30.27,NW,310,0.0,0.0,82,0.00,,,0.00,0,Wunderground v.1.15,2013-02-16 03:37:00,
2013-02-15 19:42:00,54.9,49.8,30.27,NW,310,0.0,0.0,83,0.00,,,0.00,0,Wunderground v.1.15,2013-02-16 03:42:00,
2013-02-15 19:48:00,54.8,49.7,30.27,NW,310,0.0,0.0,83,0.00,,,0.00,0,Wunderground v.1.15,2013-02-16 03:48:00,
2013-02-15 19:53:00,54.8,49.7,30.27,NW,310,0.0,0.0,83,0.00,,,0.00,0,Wunderground v.1.15,2013-02-16 03:53:00,
2013-02-15 19:59:00,54.6,49.9,30.27,NW,310,0.0,0.0,84,0.00,,,0.00,0,Wunderground v.1.15,2013-02-16 03:59:00,
2013-02-15 20:04:00,54.0,49.3,30.27,NW,310,0.0,0.0,84,0.00,,,0.00,0,Wunderground v.1.15,2013-02-16 04:04:00,
2013-02-15 20:09:00,53.8,49.4,30.27,NW,310,0.0,0.0,85,0.00,,,0.00,0,Wunderground v.1.15,2013-02-16 04:09:00,
2013-02-15 20:15:00,53.4,48.7,30.27,ENE,78,0.0,0.0,84,0.00,,,0.00,0,Wunderground v.1.15,2013-02-16 04:15:00,
2013-02-15 20:21:00,52.9,48.5,30.27,ENE,78,0.0,0.0,85,0.00,,,0.00,0,Wunderground v.1.15,2013-02-16 04:21:00,
2013-02-15 20:27:00,53.0,48.9,30.27,ENE,78,0.0,0.0,86,0.00,,,0.00,0,Wunderground v.1.15,2013-02-16 04:27:00,
2013-02-15 20:32:00,53.0,48.9,30.27,ENE,78,0.0,0.0,86,0.00,,,0.00,0,Wunderground v.1.15,2013-02-16 04:32:00,
2013-02-15 20:37:00,53.0,48.9,30.27,ESE,113,1.0,2.0,86,0.00,,,0.00,0,Wunderground v.1.15,2013-02-16 04:37:00,
2013-02-15 20:43:00,53.1,49.0,30.27,ESE,122,2.0,2.0,86,0.00,,,0.00,0,Wunderground v.1.15,2013-02-16 04:43:00,
2013-02-15 20:49:00,53.3,48.9,30.27,SE,128,1.0,2.0,85,0.00,,,0.00,0,Wunderground v.1.15,2013-02-16 04:49:00,
2013-02-15 20:55:00,53.5,49.1,30.28,SE,139,1.0,2.0,85,0.00,,,0.00,0,Wunderground v.1.15,2013-02-16 04:55:00,
2013-02-15 21:00:00,53.5,48.8,30.27,SE,131,1.0,1.0,84,0.00,,,0.00,0,Wunderground v.1.15,2013-02-16 05:00:00,
2013-02-15 21:01:00,53.5,49.1,30.27,ESE,111,1.0,1.0,85,0.00,,,0.00,0,Wunderground v.1.15,2013-02-16 05:01:00,
2013-02-15 21:02:00,53.5,49.1,30.27,ESE,122,2.0,2.0,85,0.00,,,0.00,0,Wunderground v.1.15,2013-02-16 05:02:00,
2013-02-15 21:03:00,53.5,49.1,30.28,SE,134,1.0,2.0,85,0.00,,,0.00,0,Wunderground v.1.15,2013-02-16 05:03:00,
2013-02-15 21:08:00,53.5,48.8,30.27,ESE,113,1.0,3.0,84,0.00,,,0.00,0,Wunderground v.1.15,2013-02-16 05:08:00,
2013-02-15 21:13:00,53.5,48.8,30.27,SE,134,0.0,1.0,84,0.00,,,0.00,0,Wunderground v.1.15,2013-02-16 05:13:00,
2013-02-15 21:19:00,53.5,48.8,30.28,SE,126,2.0,5.0,84,0.00,,,0.00,0,Wunderground v.1.15,2013-02-16 05:19:00,
2013-02-15 21:25:00,53.7,48.7,30.28,ESE,111,7.0,7.0,83,0.00,,,0.00,0,Wunderground v.1.15,2013-02-16 05:25:00,
2013-02-15 21:27:00,53.7,48.7,30.28,ESE,120,1.0,7.0,83,0.00,,,0.00,0,Wunderground v.1.15,2013-02-16 05:27:00,
2013-02-15 21:33:00,53.6,48.6,30.28,ESE,115,2.0,2.0,83,0.00,,,0.00,0,Wunderground v.1.15,2013-02-16 05:33:00,
2013-02-15 21:39:00,53.1,48.4,30.28,ESE,116,0.0,2.0,84,0.00,,,0.00,0,Wunderground v.1.15,2013-02-16 05:39:00,
2013-02-15 21:45:00,52.4,48.0,30.28,ESE,107,1.0,1.0,85,0.00,,,0.00,0,Wunderground v.1.15,2013-02-16 05:45:00,
2013-02-15 21:51:00,52.2,47.8,30.28,ESE,110,0.0,0.0,85,0.00,,,0.00,0,Wunderground v.1.15,2013-02-16 05:51:00,
2013-02-15 21:57:00,51.9,47.8,30.28,ESE,117,2.0,2.0,86,0.00,,,0.00,0,Wunderground v.1.15,2013-02-16 05:57:00,
2013-02-15 22:03:00,52.3,47.9,30.29,ESE,112,3.0,4.0,85,0.00,,,0.00,0,Wunderground v.1.15,2013-02-16 06:03:00,
2013-02-15 22:08:00,52.5,47.8,30.29,ESE,111,0.0,4.0,84,0.00,,,0.00,0,Wunderground v.1.15,2013-02-16 06:08:00,
2013-02-15 22:14:00,52.2,47.8,30.28,ESE,104,0.0,1.0,85,0.00,,,0.00,0,Wunderground v.1.15,2013-02-16 06:14:00,
2013-02-15 22:20:00,51.8,47.7,30.29,ESE,111,0.0,0.0,86,0.00,,,0.00,0,Wunderground v.1.15,2013-02-16 06:20:00,
2013-02-15 22:26:00,51.4,47.4,30.28,East,99,0.0,0.0,86,0.00,,,0.00,0,Wunderground v.1.15,2013-02-16 06:26:00,
2013-02-15 22:31:00,51.4,47.4,30.28,ESE,113,0.0,0.0,86,0.00,,,0.00,0,Wunderground v.1.15,2013-02-16 06:31:00,
2013-02-15 22:37:00,50.8,47.1,30.28,ESE,112,0.0,0.0,87,0.00,,,0.00,0,Wunderground v.1.15,2013-02-16 06:37:00,
2013-02-15 22:43:00,50.7,47.0,30.28,ESE,112,0.0,1.0,87,0.00,,,0.00,0,Wunderground v.1.15,2013-02-16 06:43:00,
2013-02-15 22:48:00,50.8,46.8,30.28,ESE,103,0.0,1.0,86,0.00,,,0.00,0,Wunderground v.1.15,2013-02-16 06:48:00,
2013-02-15 22:54:00,51.0,47.0,30.29,ESE,109,2.0,2.0,86,0.00,,,0.00,0,Wunderground v.1.15,2013-02-16 06:54:00,
2013-02-15 23:00:00,51.2,46.8,30.29,ESE,122,3.0,3.0,85,0.00,,,0.00,0,Wunderground v.1.15,2013-02-16 07:00:00,
2013-02-15 23:08:00,51.5,46.8,30.29,SE,126,2.0,5.0,84,0.00,,,0.00,0,Wunderground v.1.15,2013-02-16 07:08:00,
2013-02-15 23:14:00,51.7,46.4,30.29,ESE,117,2.0,4.0,82,0.00,,,0.00,0,Wunderground v.1.15,2013-02-16 07:14:00,
2013-02-15 23:20:00,51.0,46.3,30.29,East,99,1.0,1.0,84,0.00,,,0.00,0,Wunderground v.1.15,2013-02-16 07:20:00,
2013-02-15 23:25:00,50.1,46.1,30.30,East,99,0.0,1.0,86,0.00,,,0.00,0,Wunderground v.1.15,2013-02-16 07:25:00,
2013-02-15 23:31:00,50.2,46.2,30.30,East,99,0.0,0.0,86,0.00,,,0.00,0,Wunderground v.1.15,2013-02-16 07:31:00,
2013-02-15 23:37:00,50.4,46.1,30.30,East,99,0.0,0.0,85,0.00,,,0.00,0,Wunderground v.1.15,2013-02-16 07:37:00,
2013-02-15 23:43:00,50.6,45.9,30.30,ESE,123,0.0,1.0,84,0.00,,,0.00,0,Wunderground v.1.15,2013-02-16 07:43:00,
2013-02-15 23:48:00,50.6,45.9,30.30,ESE,113,1.0,3.0,84,0.00,,,0.00,0,Wunderground v.1.15,2013-02-16 07:48:00,
2013-02-15 23:54:00,50.8,45.8,30.30,ESE,112,2.0,2.0,83,0.00,,,0.00,0,Wunderground v.1.15,2013-02-16 07:54:00,